Regional Weather Roundup
Issued by NWS

Home | Current Version | Previous Version | Text Only | Print | Product List | Glossary Off
Versions: 1 2 3 4 5 6 7 8 9 10 11 12 13 14 15 16 17 18 19 20 21 22 23 24 25 26 27 28 29 30 31 32 33 34 35 36 37 38 39 40 41 42 43 44 45 46 47 48 49 50

000
ASUS43 KFSD 301810
RWRSD

WEATHER ROUNDUP FOR SOUTH DAKOTA
NATIONAL WEATHER SERVICE SIOUX FALLS SD
1200 PM CST FRI JAN 30 2015

NOTE: "FAIR" INDICATES FEW OR NO CLOUDS BELOW 12,000 FEET WITH NO
SIGNIFICANT WEATHER AND/OR OBSTRUCTIONS TO VISIBILITY.


SDZ001>005-009-010-012>017-301900-
NORTHWEST AND NORTH CENTRAL SOUTH DAKOTA

CITY           SKY/WX    TMP DP  RH WIND       PRES   REMARKS
BUFFALO          N/A     44  26  49 NW13      30.11F
FAITH            N/A     44  23  43 NW14      30.16F
MOBRIDGE       SUNNY     31  24  75 S5        30.17F WCI  26
$$

SDZ012>016-024>037-041>051-057-063-072>074-301900-
SOUTHWEST AND SOUTH CENTRAL SOUTH DAKOTA

CITY           SKY/WX    TMP DP  RH WIND       PRES   REMARKS
RAPID CTY ARPT PTSUNNY   45  24  43 N14       30.17F
PIERRE         MOSUNNY   37  26  64 S5        30.20S
CUSTER           N/A    N/A N/A N/A MISG      30.16F
ELLSWORTH AFB  PTSUNNY   45  23  41 N14       30.17S
PHILIP         PTSUNNY   42  24  49 W9        30.19S
PINE RIDGE     MOSUNNY   46  23  40 SW7       30.18F
WINNER         FAIR      46  26  45 S20       30.19F
$$

SDZ004>011-016>023-039-040-301900-
NORTHEAST SOUTH DAKOTA

CITY           SKY/WX    TMP DP  RH WIND       PRES   REMARKS
ABERDEEN       SUNNY     32  24  72 S16       30.24F WCI  21
WATERTOWN      SUNNY     31  23  72 S17       30.26F WCI  19
SISSETON         N/A     30  23  75 S20       30.26F WCI  17
$$

SDZ017-020-022-023-036>040-048>070-301900-
SOUTHEAST SOUTH DAKOTA

CITY           SKY/WX    TMP DP  RH WIND       PRES   REMARKS
SIOUX FALLS    MOSUNNY   30  23  75 S16       30.35F WCI  19
HURON          SUNNY     32  24  72 S18G25    30.26F WCI  20
CHAMBERLAIN    MOSUNNY   39  28  63 S14G20    30.22F
MITCHELL       SUNNY     34  26  72 S18       30.29F WCI  23
YANKTON        MOSUNNY   36  27  69 S15       30.37F
$$

ABBREVIATIONS USED IN REMARKS
   TC - TEMPERATURE IN CELSIUS
  WCI - WIND CHILL INDEX
   HX - HEAT INDEX
  VSB - VISIBILITY



USA.gov is the U.S. government's official web portal to all federal, state and local government web resources and services.